Weather in Ulagan

Russia / Altai Republic     50°37′54″N   87°57′22″E
temp.,
°C
wind,
m/s
gust,
m/s
humid.,
%
clouds,
%
prec.,
mm/h
press.,
hPa
HPBL,
m
27 february, sat
sat2701:00−28sw118999 0.0 104319
04:00−28sw0189100 0.0 104319
07:00−28ene1187100 0.0 104219
10:00−24ene1185100 0.0 1041177
13:00−19sw0179100 0.1 1036402
16:00−17sw1281100 0.1 1035617
19:00−20s1197100 0.2 103820
22:00−23sw1195100 0.0 104220
28 february, sun
sun2801:00−27sw119599 0.1 104319
04:00−30e009274 0.0 104419
07:00−31ene118745 0.0 104619
10:00−26ene128272 0.0 1044136
13:00−17ene017385 0.0 1037317
16:00−13sw016997 0.0 1035479
19:00−18se118198 0.0 103620
22:00−19se1186100 0.0 103621
1 march, mon
mon101:00−20e1288100 0.0 103423
04:00−19ene1196100 0.2 103267
07:00−18ene1198100 0.7 102965
10:00−15ene1290100 0.3 1026164
13:00−8e1179100 0.3 1020337
16:00−6ne0176100 0.0 1018332
19:00−8ene0187100 0.1 101921
22:00−10s1188100 0.0 102021
2 march, tue
tue201:00−11sw1185100 0.1 102121
04:00−11s1295100 0.4 102150
07:00−11s1197100 1.3 102322
10:00−9s1194100 1.0 1021183
13:00−6s1192100 2.1 1018292
16:00−4ssw1293100 1.0 1016347
19:00−6wnw1197100 2.0 101622
22:00−7sw1197100 1.1 101721
3 march, wed
wed301:00−8s1196100 1.8 101629
04:00−9s1194100 0.8 101430
07:00−10s1195100 1.4 101540
10:00−8s1294100 0.6 1013218
13:00−4w61269100 1.6 10122122
16:00−4w6136482 0.4 10122410
19:00−10wnw257656 0.4 101674
22:00−16w118451 0.0 102020